Location: Miles
(41.4492°N, 81.6087°W)
Time: 10:48:46
(UTC+00:00)

Courier 1B - Pass Details

Date: 19 September 2024
Orbit: 962 x 1208 km, 28.3° (Epoch: 11 October)

Event Time Altitude Azimuth Distance (km) Brightness Sun altitude
Rises 20:30:38 0° 253° (WSW) 3,846 11.7 31.1°
Reaches altitude 10° 20:33:44 10° 241° (WSW) 2,931 11.6 30.6°
Maximum altitude 20:39:38 28° 186° (S) 1,992 9.9 29.6°
Drops below altitude 10° 20:45:49 10° 132° (SE) 3,071 10.0 28.6°
Sets 20:49:09 0° 121° (ESE) 4,062 10.4 28.0°
